Location: Heilwood
(40.6210°N, 78.9150°W)
Time: 00:06:28
(UTC-05:00)

Daily predictions for brighter satellites

Satellite Brightness Start Highest point End
(mag) Time Altitude Azimuth Time Altitude Azimuth Time Altitude Azimuth
ADEOS II 3.5 03:49:34 10° NNE 03:52:50 34° NE 03:52:50 34° NE
Cosmos 2369 Rocket 3.3 03:58:19 41° NE 03:58:19 41° NE 04:02:01 10° NNE
ATLAS CENTAUR R/B 3.4 03:57:39 72° NE 03:57:39 72° NE 04:11:01 10° SE
USA 234 3.3 04:00:41 10° NE 04:07:05 74° SE 04:07:05 74° SE
Lacrosse 5 2.7 04:21:27 45° ESE 04:21:27 45° ESE 04:25:57 10° NE
Cosmos 407 Rocket 4.4 04:22:45 10° N 04:27:57 48° ENE 04:33:05 10° SE
Cosmos 2263 4.0 04:39:27 79° NW 04:39:27 79° NW 04:44:59 10° NNE
ATLAS 5 CENTAUR R/B 1.8 04:40:36 74° NE 04:40:36 74° NE 04:45:17 10° NE
Cosmos 1867 4.2 04:42:03 42° NNW 04:42:03 42° NNW 04:46:14 10° NNE
CZ-4B R/B 3.5 04:38:43 10° N 04:43:24 53° NW 04:43:24 53° NW
Cosmos 1943 Rocket 2.1 04:46:13 53° SSW 04:47:33 84° ESE 04:53:07 10° NNE
Cosmos 1703 Rocket 4.4 04:44:40 12° SSE 04:48:33 48° E 04:52:45 10° NNE
Meteor 2-10 Rocket 4.2 04:45:48 10° S 04:50:38 51° E 04:55:31 10° NNE
Cosmos 1190 Rocket 3.9 04:50:32 23° NNW 04:53:55 86° WSW 04:59:11 10° SSE
Okean O Rocket 4.1 04:50:45 10° N 04:50:54 11° N 04:50:54 11° N
Cosmos 972 4.5 04:54:16 27° S 04:56:57 74° ESE 05:02:03 10° NNE
Meteor 1-26 Rocket 4.3 05:00:20 10° S 05:06:03 79° E 05:11:41 10° NNE
Cosmos 1624 Rocket 4.3 05:07:58 46° WNW 05:08:09 46° WNW 05:13:17 10° N
Cosmos 2056 Rocket 3.6 05:09:10 47° WNW 05:09:22 47° WNW 05:14:23 10° N
Cosmos 2221 Rocket 3.9 05:07:19 10° S 05:11:50 71° E 05:16:24 10° NNE
Nadezhda 2 Rocket 4.3 05:05:55 10° NNW 05:11:58 66° W 05:18:01 10° S
SJ-6F 4.5 05:08:01 10° NNE 05:12:11 79° E 05:16:18 10° S
COSMO-SKYMED 1 3.3 05:09:44 10° SSE 05:13:56 53° ENE 05:18:11 10° N
Cosmos 2266 Rocket 4.4 05:10:44 10° NNW 05:16:16 36° W 05:21:43 10° SSW
Cosmos 1954 Rocket 4.1 05:16:10 10° NNW 05:21:31 80° ENE 05:26:49 10° SSE
NOAA 6 4.0 05:16:34 10° NNE 05:21:46 85° ESE 05:26:54 10° SSW
Meteor 1-31 Rocket 2.9 05:19:19 10° N 05:23:05 48° WNW 05:23:12 47° W
Ariane Rocket 4.4 05:22:05 10° NNE 05:26:52 40° E 05:31:35 10° SSE
Cosmos 1420 Rocket 4.5 05:22:18 10° S 05:27:23 62° ESE 05:32:31 10° NNE
Abrixas 4.0 05:28:55 24° N 05:28:55 24° N 05:31:09 10° NE
Feng Yun 1-1 Rocket 4.5 05:27:34 10° N 05:33:17 54° WNW 05:39:01 10° SW
ADEOS II 3.3 05:30:01 10° NNW 05:33:48 23° WNW 05:33:48 23° WNW
Cosmos 2219 3.7 05:28:52 10° NNW 05:34:31 63° ENE 05:40:05 10° SE
Thor Agena Rocket 3.7 05:29:54 10° S 05:34:57 48° W 05:39:58 10° NNW
Cosmos 1417 Rocket 4.4 05:30:26 10° SSW 05:36:35 69° W 05:42:43 10° N
Cosmos 1745 Rocket 4.1 05:30:35 10° N 05:36:47 78° E 05:42:53 10° S
CZ-4B R/B 4.4 05:34:08 10° N 05:37:45 35° WNW 05:39:08 27° WSW
Sich 1 Rocket 4.2 05:35:43 10° NNW 05:39:45 32° W 05:43:45 10° SSW
Cosmos 2369 Rocket 3.5 05:40:08 20° WNW 05:40:54 20° NW 05:45:03 10° N
Cosmos 2227 Rocket 4.4 05:37:58 10° N 05:42:36 25° NE 05:47:12 10° ESE
SKYMED 3 4.5 05:39:38 10° S 05:43:57 70° WSW 05:48:18 10° NNW
Tiangong 1 1.0 05:43:28 34° SW 05:44:34 69° SSE 05:47:30 10° ENE
Okean 1-7 3.0 05:41:41 10° SSW 05:45:52 56° W 05:50:04 10° N
Okean-O 3.5 05:43:05 10° N 05:46:55 29° WNW 05:49:14 18° WSW
Cosmos 1908 Rocket 4.4 05:43:10 10° NNW 05:47:00 28° W 05:50:48 10° SSW
USA 234 3.9 05:43:58 10° NE 05:49:55 39° NNW 05:54:27 17° W
Cosmos 1452 Rocket 3.7 05:45:43 10° SW 05:50:49 49° WNW 05:55:58 10° N
CZ-4C R/B 2.1 05:45:38 10° SW 05:50:52 74° NW 05:56:50 10° NNE
Cosmos 1782 Rocket 3.9 05:48:16 10° NNW 05:52:29 42° W 05:56:40 10° SSW
Cosmos 1656 Rocket 3.8 05:50:40 10° SW 05:56:16 58° WNW 06:01:53 10° NNE
SKYMED 2 3.9 05:57:55 10° S 06:02:02 43° W 06:06:11 10° NNW
Cosmos 1741 Rocket 4.1 05:57:10 10° NNW 06:02:26 85° ENE 06:07:41 10° SSE
Lacrosse 5 2.7 06:00:42 16° W 06:04:11 34° NW 06:08:50 10° NNE
Lacrosse 5 rocket 3.5 06:03:15 10° NNW 06:05:39 17° NNE 06:08:03 10° ENE
USA 81 4.0 06:06:14 10° SSW 06:11:26 63° W 06:16:42 10° N
Meteor 1-27 Rocket 4.4 06:06:25 10° S 06:12:04 63° E 06:17:52 10° NNE
Okean 2 Rocket 3.6 06:08:17 10° NNW 06:12:16 34° W 06:16:14 10° SSW
ATLAS 3B R/B 3.2 06:11:18 10° SSW 06:18:52 75° ESE 06:26:12 10° NE
Cosmos 1674 Rocket 3.8 06:15:10 10° S 06:19:32 78° E 06:23:58 10° N
S3M 4.5 06:18:13 10° SW 06:24:04 38° WNW 06:29:54 10° N
ATLAS 5 CENTAUR R/B 3.6 06:22:27 10° WNW 06:25:39 17° NW 06:29:01 10° N
Cosmos 1782 3.3 06:22:18 10° SW 06:25:58 36° WNW 06:29:40 10° N
Meteor 1-28 Rocket 4.2 06:26:01 10° SSW 06:29:07 25° W 06:32:15 10° NW
Cosmos 2151 Rocket 3.9 06:26:53 10° NNW 06:31:13 47° W 06:35:31 10° SSW
Cosmos 1943 Rocket 3.7 06:28:48 10° W 06:32:02 16° NW 06:35:18 10° NNW
Cosmos 1140 Rocket 4.3 06:28:59 10° NW 06:33:28 29° W 06:37:57 10° SSW
Okean 1 Rocket 3.5 06:32:10 10° N 06:36:35 69° E 06:40:56 10° SSE
Cosmos 1607 3.9 06:30:55 10° SSW 06:37:03 85° WNW 06:43:16 10° NNE
